| time (UTC) | temp C | wind direction | speed KPH | gust KPH | rain 1hr cm | rain 24hr cm | rain mn cm | humidity % | barometer mb |
| 20260503032658 | 3 | 75 | 1.6 | 1.6 | 0.00 | 0.00 | 0.00 | 77 | 1018.5 |
| 20260503031658 | 3 | 73 | 1.6 | 3.2 | 0.00 | 0.00 | 0.00 | 77 | 1018.7 |
| 20260503030658 | 2 | 67 | 0.0 | 1.6 | 0.00 | 0.00 | 0.00 | 77 | 1018.7 |
| 20260503025658 | 3 | 78 | 1.6 | 1.6 | 0.00 | 0.00 | 0.00 | 76 | 1018.9 |
| 20260503024658 | 3 | 77 | 0.0 | 0.0 | 0.00 | 0.00 | 0.00 | 74 | 1018.9 |
| 20260503023658 | 3 | 58 | 1.6 | 3.2 | 0.00 | 0.00 | 0.00 | 73 | 1019.0 |
| 20260503022658 | 3 | 55 | 0.0 | 1.6 | 0.00 | 0.00 | 0.00 | 72 | 1018.8 |
| 20260503021658 | 3 | 64 | 1.6 | 1.6 | 0.00 | 0.00 | 0.00 | 68 | 1018.5 |
| 20260503020658 | 3 | 65 | 0.0 | 1.6 | 0.00 | 0.00 | 0.00 | 67 | 1018.6 |
| 20260503015658 | 5 | 76 | 1.6 | 1.6 | 0.00 | 0.00 | 0.00 | 62 | 1018.5 |
| 20260503014658 | 5 | 70 | 3.2 | 3.2 | 0.00 | 0.00 | 0.00 | 60 | 1018.6 |
| 20260503013658 | 5 | 58 | 3.2 | 3.2 | 0.00 | 0.00 | 0.00 | 58 | 1018.1 |
| 20260503012658 | 6 | 77 | 3.2 | 3.2 | 0.00 | 0.00 | 0.00 | 57 | 1018.2 |
| 20260503011659 | 6 | 81 | 3.2 | 3.2 | 0.00 | 0.00 | 0.00 | 56 | 1017.9 |
| 20260503010658 | 6 | 68 | 0.0 | 3.2 | 0.00 | 0.00 | 0.00 | 54 | 1018.2 |
| 20260503005659 | 6 | 79 | 1.6 | 3.2 | 0.00 | 0.00 | 0.00 | 55 | 1018.0 |
| 20260503004658 | 6 | 57 | 3.2 | 3.2 | 0.00 | 0.00 | 0.00 | 55 | 1017.9 |
| 20260503003658 | 6 | 38 | 4.8 | 4.8 | 0.00 | 0.00 | 0.00 | 52 | 1018.0 |
| 20260503002658 | 6 | 35 | 3.2 | 3.2 | 0.00 | 0.00 | 0.00 | 52 | 1017.8 |
| 20260503001658 | 6 | 43 | 3.2 | 3.2 | 0.00 | 0.00 | 0.00 | 50 | 1017.9 |
| 20260503000658 | 6 | 58 | 0.0 | 3.2 | 0.00 | 0.00 | 0.00 | 49 | 1017.6 |
| 20260502235658 | 6 | 49 | 3.2 | 3.2 | 0.00 | 0.00 | 0.00 | 49 | 1017.5 |
| 20260502234658 | 7 | 59 | 3.2 | 4.8 | 0.00 | 0.00 | 0.00 | 49 | 1017.5 |
| 20260502233658 | 7 | 69 | 3.2 | 4.8 | 0.00 | 0.00 | 0.00 | 47 | 1017.4 |
| 20260502232658 | 7 | 56 | 3.2 | 3.2 | 0.00 | 0.00 | 0.00 | 47 | 1017.6 |
| 20260502231658 | 7 | 164 | 3.2 | 4.8 | 0.00 | 0.00 | 0.00 | 46 | 1017.5 |
| 20260502225658 | 7 | 20 | 3.2 | 4.8 | 0.00 | 0.00 | 0.00 | 46 | 1017.4 |
| 20260502224658 | 7 | 178 | 3.2 | 6.4 | 0.00 | 0.00 | 0.00 | 46 | 1017.5 |
| 20260502223658 | 7 | 63 | 3.2 | 4.8 | 0.00 | 0.00 | 0.00 | 45 | 1017.5 |
| 20260502222658 | 7 | 69 | 3.2 | 4.8 | 0.00 | 0.00 | 0.00 | 44 | 1017.4 |
| 20260502221659 | 7 | 32 | 6.4 | 9.7 | 0.00 | 0.00 | 0.00 | 44 | 1017.5 |
| 20260502220658 | 7 | 59 | 3.2 | 4.8 | 0.00 | 0.00 | 0.00 | 45 | 1017.4 |
| 20260502215658 | 7 | 25 | 8.0 | 11.3 | 0.00 | 0.00 | 0.00 | 45 | 1017.4 |
| 20260502214658 | 7 | 48 | 3.2 | 4.8 | 0.00 | 0.00 | 0.00 | 44 | 1017.3 |
| 20260502213658 | 7 | 29 | 3.2 | 4.8 | 0.00 | 0.00 | 0.00 | 44 | 1017.2 |
| 20260502212658 | 7 | 0 | 0.0 | 3.2 | 0.00 | 0.00 | 0.00 | 44 | 1017.2 |
| 20260502211658 | 8 | 6 | 6.4 | 6.4 | 0.00 | 0.00 | 0.00 | 43 | 1017.0 |
| 20260502210658 | 7 | 24 | 3.2 | 8.0 | 0.00 | 0.00 | 0.00 | 41 | 1016.8 |
| 20260502205658 | 7 | 30 | 6.4 | 8.0 | 0.00 | 0.00 | 0.00 | 41 | 1017.0 |
| 20260502204658 | 8 | 54 | 9.7 | 9.7 | 0.00 | 0.00 | 0.00 | 43 | 1016.7 |
| 20260502203658 | 7 | 11 | 4.8 | 4.8 | 0.00 | 0.00 | 0.00 | 43 | 1017.1 |
| 20260502202658 | 8 | 68 | 3.2 | 4.8 | 0.00 | 0.00 | 0.00 | 40 | 1016.8 |
| 20260502201658 | 8 | 42 | 4.8 | 4.8 | 0.00 | 0.00 | 0.00 | 45 | 1017.0 |
| 20260502200658 | 8 | 55 | 3.2 | 4.8 | 0.00 | 0.00 | 0.00 | 42 | 1017.2 |
| 20260502195658 | 7 | 48 | 6.4 | 9.7 | 0.00 | 0.00 | 0.00 | 44 | 1017.2 |
| 20260502194659 | 7 | 32 | 6.4 | 8.0 | 0.00 | 0.00 | 0.00 | 44 | 1017.3 |
| 20260502193658 | 7 | 39 | 6.4 | 6.4 | 0.00 | 0.00 | 0.00 | 44 | 1017.2 |
| 20260502192658 | 8 | 40 | 4.8 | 11.3 | 0.00 | 0.00 | 0.00 | 43 | 1017.5 |
| 20260502191658 | 8 | 9 | 3.2 | 6.4 | 0.00 | 0.00 | 0.00 | 43 | 1017.3 |
| 20260502190658 | 8 | 120 | 3.2 | 4.8 | 0.00 | 0.00 | 0.00 | 47 | 1017.1 |
| 20260502185658 | 7 | 173 | 4.8 | 4.8 | 0.00 | 0.00 | 0.00 | 43 | 1017.5 |
| 20260502184659 | 8 | 16 | 9.7 | 9.7 | 0.00 | 0.00 | 0.00 | 44 | 1017.6 |
| 20260502183658 | 7 | 25 | 6.4 | 6.4 | 0.00 | 0.00 | 0.00 | 46 | 1017.6 |
| 20260502182659 | 7 | 40 | 8.0 | 8.0 | 0.00 | 0.00 | 0.00 | 48 | 1017.7 |
| 20260502181658 | 7 | 66 | 3.2 | 4.8 | 0.00 | 0.00 | 0.00 | 47 | 1017.7 |
| 20260502180658 | 7 | 11 | 9.7 | 9.7 | 0.00 | 0.00 | 0.00 | 45 | 1017.7 |
| 20260502163658 | 7 | 1 | 6.4 | 6.4 | 0.00 | 0.00 | 0.00 | 48 | 1017.9 |
| 20260502162658 | 7 | 68 | 3.2 | 8.0 | 0.00 | 0.00 | 0.00 | 49 | 1018.2 |
| 20260502161658 | 7 | 41 | 6.4 | 6.4 | 0.00 | 0.00 | 0.00 | 45 | 1018.0 |
| 20260502160658 | 7 | 22 | 3.2 | 8.0 | 0.00 | 0.00 | 0.00 | 51 | 1018.0 |
| 20260502151659 | 7 | 58 | 4.8 | 6.4 | 0.00 | 0.00 | 0.00 | 50 | 1017.9 |
| 20260502150658 | 6 | 37 | 6.4 | 9.7 | 0.00 | 0.00 | 0.00 | 54 | 1018.3 |
| 20260502130658 | 4 | 20 | 6.4 | 8.0 | 0.00 | 0.00 | 0.00 | 72 | 1018.5 |
| 20260502123658 | 2 | 34 | 6.4 | 9.7 | 0.00 | 0.00 | 0.00 | 78 | 1018.4 |
| 20260502122658 | 2 | 69 | 3.2 | 6.4 | 0.00 | 0.00 | 0.00 | 77 | 1018.3 |
| 20260502121658 | 1 | 359 | 4.8 | 6.4 | 0.00 | 0.00 | 0.00 | 79 | 1018.2 |
| 20260502120658 | 1 | 34 | 4.8 | 4.8 | 0.00 | 0.00 | 0.00 | 84 | 1018.2 |
| 20260502115658 | 1 | 32 | 1.6 | 4.8 | 0.00 | 0.00 | 0.00 | 84 | 1018.4 |
| 20260502114658 | 0 | 344 | 0.0 | 3.2 | 0.00 | 0.00 | 0.00 | 85 | 1018.2 |
| 20260502113658 | 0 | 6 | 6.4 | 6.4 | 0.00 | 0.00 | 0.00 | 86 | 1018.3 |
| 20260502112658 | 0 | 13 | 3.2 | 4.8 | 0.00 | 0.00 | 0.00 | 87 | 1018.3 |
| 20260502111658 | 0 | 41 | 4.8 | 4.8 | 0.00 | 0.00 | 0.00 | 89 | 1017.9 |
| 20260502110658 | 0 | 75 | 4.8 | 4.8 | 0.00 | 0.00 | 0.00 | 91 | 1018.2 |
| 20260502105658 | 0 | 60 | 3.2 | 4.8 | 0.00 | 0.00 | 0.00 | 93 | 1018.3 |
| 20260502104658 | 0 | 48 | 1.6 | 4.8 | 0.00 | 0.00 | 0.00 | 94 | 1018.3 |
| 20260502103658 | 0 | 48 | 4.8 | 4.8 | 0.00 | 0.00 | 0.00 | 94 | 1018.3 |
| 20260502102658 | 0 | 39 | 0.0 | 3.2 | 0.00 | 0.00 | 0.00 | 94 | 1018.1 |
| 20260502101658 | 0 | 5 | 3.2 | 3.2 | 0.00 | 0.00 | 0.00 | 95 | 1018.2 |
| 20260502100658 | 0 | 53 | 6.4 | 8.0 | 0.00 | 0.00 | 0.00 | 96 | 1018.0 |
| 20260502090658 | 0 | 115 | 4.8 | 6.4 | 0.00 | 0.00 | 0.00 | 98 | 1017.9 |
| 20260502070658 | 0 | 82 | 0.0 | 6.4 | 0.00 | 0.00 | 0.00 | 98 | 1017.7 |
| 20260502064658 | 1 | 127 | 3.2 | 4.8 | 0.00 | 0.00 | 0.00 | 98 | 1018.0 |
| 20260502063703 | 1 | 103 | 0.0 | 8.0 | 0.00 | 0.00 | 0.00 | 98 | 1018.2 |
| 20260502062658 | 1 | 37 | 3.2 | 3.2 | 0.00 | 0.00 | 0.00 | 98 | 1018.3 |
| 20260502061659 | 1 | 54 | 1.6 | 1.6 | 0.00 | 0.00 | 0.00 | 98 | 1017.6 |
| 20260502060658 | 1 | 80 | 1.6 | 1.6 | 0.00 | 0.00 | 0.00 | 98 | 1017.9 |
| 20260502055658 | 2 | 79 | 0.0 | 1.6 | 0.00 | 0.00 | 0.00 | 98 | 1017.9 |
| 20260502054658 | 2 | 34 | 4.8 | 4.8 | 0.00 | 0.00 | 0.00 | 98 | 1017.9 |
| 20260502053658 | 2 | 110 | 0.0 | 0.0 | 0.00 | 0.00 | 0.00 | 97 | 1018.0 |
| 20260502052658 | 2 | 65 | 0.0 | 1.6 | 0.00 | 0.00 | 0.00 | 97 | 1017.9 |
| 20260502051658 | 2 | 136 | 1.6 | 1.6 | 0.00 | 0.00 | 0.00 | 97 | 1018.0 |
| 20260502050658 | 2 | 81 | 0.0 | 0.0 | 0.00 | 0.00 | 0.00 | 97 | 1018.1 |
| 20260502045658 | 2 | 66 | 0.0 | 0.0 | 0.00 | 0.00 | 0.00 | 97 | 1017.9 |
| 20260502044702 | 2 | 64 | 3.2 | 3.2 | 0.00 | 0.00 | 0.00 | 97 | 1018.2 |
| 20260502043658 | 2 | 44 | 3.2 | 3.2 | 0.00 | 0.00 | 0.00 | 96 | 1018.0 |
| 20260502042658 | 2 | 73 | 0.0 | 1.6 | 0.00 | 0.00 | 0.00 | 96 | 1018.3 |
| 20260502041658 | 2 | 56 | 1.6 | 3.2 | 0.00 | 0.00 | 0.00 | 96 | 1018.2 |
| 20260502040659 | 2 | 76 | 1.6 | 1.6 | 0.00 | 0.00 | 0.00 | 96 | 1018.0 |
| 20260502035658 | 2 | 65 | 1.6 | 3.2 | 0.00 | 0.00 | 0.25 | 96 | 1018.0 |
| 20260502034658 | 2 | 61 | 3.2 | 3.2 | 0.00 | 0.00 | 0.25 | 96 | 1017.9 |
| 20260502033658 | 2 | 48 | 3.2 | 3.2 | 0.00 | 0.00 | 0.25 | 96 | 1017.9 |